This demonstration page uses our WeatherBlox Daily Observations layout. Learn more.

40.92945, -100.16068

Hourly Observations for November 24, 2020

Temp ( °F °C ) Dew Point ( °F °C ) Humidity (%) Winds ( mph kmh ) Pressure ( in mb ) Visibility ( mi km ) Precip ( " mm )
12:15 am 00:15 Cloudy with Mist and Fog 42 5.6 41 5.2 97 97 ESE 9 15 29.8 1009 2 3.21868 0 0
12:35 am 00:35 Cloudy with Mist and Fog 42 5.6 41 5.2 97 97 ESE 7 11 29.81 1010 1.75 2.816345 0 0
12:55 am 00:55 Cloudy with Mist and Fog 42 5.7 42 5.5 99 99 SE 7 11 29.81 1010 1.25 2.011675 0 0
1:15 am 01:15 Cloudy with Mist and Fog 42 5.7 42 5.5 99 99 E 5 7 29.8 1009 1 1.60934 0 0
1:35 am 01:35 Cloudy with Fog 42 5.7 42 5.5 99 99 E 6 9 29.79 1009 0.5 0.80467 0 0
1:55 am 01:55 Cloudy with Fog 42 5.7 42 5.5 99 99 E 7 11 29.79 1009 0.5 0.80467 0 0
2:15 am 02:15 Cloudy with Fog 42 5.6 42 5.5 99 99 ENE 6 9 29.79 1009 0.25 0.402335 0 0
2:35 am 02:35 Cloudy with Fog 42 5.6 42 5.5 99 99 ENE 7 11 29.78 1009 0.25 0.402335 0 0
2:55 am 02:55 Cloudy with Light Rain 42 5.6 42 5.5 99 99 ENE 6 9 29.78 1009 0.5 0.80467 0 0
3:15 am 03:15 Cloudy with Light Rain 42 5.6 42 5.5 99 99 NE 8 13 29.78 1009 0.75 1.207005 0 0
3:35 am 03:35 Cloudy with Mist and Fog 42 5.5 42 5.4 99 99 NNE 9 15 29.79 1009 2.5 4.02335 0 0
3:55 am 03:55 Cloudy with Drizzle 42 5.4 41 5.1 98 98 NNE 9 15 29.78 1009 2.5 4.02335 0 0
4:15 am 04:15 Cloudy with Light Rain 41 5.2 41 5 99 99 NNE 8 13 29.79 1009 3 4.82802 0 0
4:35 am 04:35 Cloudy with Rain 41 5.1 41 5 99 99 NNE 10 17 29.78 1008 2.5 4.02335 0 0
4:55 am 04:55 Cloudy with Light Rain 41 5.1 41 4.8 98 98 NNE 14 22 29.78 1008 4 6.43736 0.02 0.508
5:15 am 05:15 Cloudy with Drizzle 41 5 40 4.6 97 97 NNE 13 20 29.78 1008 4 6.43736 0 0
5:35 am 05:35 Cloudy with Thunderstorms 41 4.8 40 4.3 97 97 NNE 13 20 29.79 1009 7 11.26538 0 0
5:55 am 05:55 Cloudy with Drizzle 40 4.7 39 4.1 96 96 N 13 20 29.81 1010 5 8.0467 0 0
6:15 am 06:15 Cloudy with Drizzle 40 4.5 39 4 97 97 N 13 20 29.82 1010 4 6.43736 0.01 0.254
6:35 am 06:35 Cloudy with Drizzle 40 4.5 39 4 97 97 N 13 20 29.82 1010 5 8.0467 0.01 0.254
6:55 am 06:55 Cloudy with Drizzle 40 4.3 39 3.8 97 97 N 13 20 29.82 1010 3 4.82802 0.02 0.508
7:15 am 07:15 Cloudy with Mist and Fog 39 4.1 38 3.5 96 96 NNE 15 24 29.82 1010 3 4.82802 0.01 0.254
7:35 am 07:35 Cloudy with Mist and Fog 40 4.2 38 3.6 96 96 N 12 19 29.83 1010 4 6.43736 0.01 0.254
7:55 am 07:55 Cloudy 40 4.3 38 3.4 94 94 N 10 17 29.83 1010 10 16.0934 0.01 0.254
8:15 am 08:15 Cloudy 40 4.3 37 3 91 91 N 14 22 29.84 1011 10 16.0934 0 0
8:35 am 08:35 Cloudy 40 4.2 37 3 92 92 N 5 7 29.85 1011 10 16.0934 0 0
8:55 am 08:55 Cloudy 40 4.5 38 3.2 91 91 N 6 9 29.86 1011 7 11.26538 0 0
9:10 am 09:10 Cloudy 40 4.5 38 3.1 91 91 N 16 26 29.86 1011 10 16.0934 0 0
9:35 am 09:35 Cloudy 39 4 36 2.2 88 88 N 14 22 29.87 1011 10 16.0934 0 0
9:50 am 09:50 Cloudy 38 3.3 33 0.6 83 83 N 17 28 29.88 1012 10 16.0934 0 0
10:15 am 10:15 Cloudy 37 2.5 31 -0.6 80 80 N 17 28 29.9 1013 10 16.0934 0 0
10:30 am 10:30 Cloudy 37 2.5 31 -0.5 81 81 NNW 13 20 29.9 1013 10 16.0934 0 0
10:55 am 10:55 Cloudy 37 2.6 30 -0.9 78 78 N 15 24 29.9 1013 10 16.0934 0 0
11:15 am 11:15 Cloudy 37 2.8 29 -1.7 73 73 N 16 26 29.9 1012 10 16.0934 0 0
11:35 am 11:35 Cloudy 37 2.9 29 -1.9 71 71 N 15 24 29.91 1013 10 16.0934 0 0
11:55 am 11:55 Cloudy 37 3 29 -1.8 71 71 N 18 30 29.91 1013 10 16.0934 0 0
12:15 pm 12:15 Cloudy 38 3.1 29 -1.9 70 70 NNW 20 31 29.91 1013 10 16.0934 0 0
12:35 pm 12:35 Cloudy 38 3.2 30 -1.2 73 73 N 16 26 29.9 1012 10 16.0934 0 0
12:55 pm 12:55 Cloudy 38 3.5 31 -0.6 75 75 N 20 31 29.89 1012 10 16.0934 0 0
1:15 pm 13:15 Cloudy 37 3 32 0 81 81 N 17 28 29.9 1012 10 16.0934 0 0
1:35 pm 13:35 Cloudy 38 3.1 33 0.3 82 82 N 14 22 29.9 1012 10 16.0934 0 0
1:55 pm 13:55 Cloudy 38 3.2 33 0.6 83 83 N 14 22 29.9 1012 10 16.0934 0 0
2:15 pm 14:15 Cloudy 38 3.5 33 0.6 82 82 N 15 24 29.89 1012 10 16.0934 0 0
2:35 pm 14:35 Cloudy 38 3.6 32 0.1 78 78 N 17 28 29.89 1012 10 16.0934 0 0
2:55 pm 14:55 Cloudy 38 3.5 32 0 78 78 N 16 26 29.88 1012 10 16.0934 0 0
3:15 pm 15:15 Cloudy 38 3.1 30 -1 75 75 N 13 20 29.9 1012 10 16.0934 0 0
3:35 pm 15:35 Cloudy 38 3.3 29 -1.5 71 71 NNW 14 22 29.89 1012 10 16.0934 0 0
3:55 pm 15:55 Cloudy 38 3.5 28 -2.3 66 66 N 13 20 29.89 1012 10 16.0934 0 0
4:15 pm 16:15 Cloudy 38 3.6 28 -2.3 66 66 NNW 15 24 29.89 1012 10 16.0934 0 0
4:35 pm 16:35 Cloudy 39 3.7 28 -2 67 67 NNW 9 15 29.9 1013 10 16.0934 0 0
4:55 pm 16:55 Cloudy 38 3.6 29 -1.8 68 68 NNW 12 19 29.9 1013 10 16.0934 0 0
5:15 pm 17:15 Cloudy 38 3.6 29 -1.7 69 69 NNW 12 19 29.9 1013 10 16.0934 0 0
5:35 pm 17:35 Cloudy 39 3.8 28 -2.2 65 65 NNW 15 24 29.9 1013 10 16.0934 0 0
5:55 pm 17:55 Cloudy 39 3.8 27 -2.6 63 63 NNW 15 24 29.91 1013 10 16.0934 0 0
6:15 pm 18:15 Cloudy 39 4 26 -3.1 60 60 N 14 22 29.93 1013 10 16.0934 0 0
6:35 pm 18:35 Cloudy 39 3.8 26 -3.4 60 60 N 14 22 29.94 1014 10 16.0934 0 0
6:55 pm 18:55 Cloudy 39 3.7 26 -3.6 59 59 N 16 26 29.95 1014 10 16.0934 0 0
7:15 pm 19:15 Cloudy 39 4 24 -4.6 54 54 N 16 26 29.96 1014 10 16.0934 0 0
7:35 pm 19:35 Cloudy 39 3.8 24 -4.4 55 55 N 16 26 29.96 1015 10 16.0934 0 0
7:55 pm 19:55 Cloudy 39 3.7 24 -4.3 56 56 N 15 24 29.97 1015 10 16.0934 0 0
8:15 pm 20:15 Cloudy 38 3.6 24 -4.3 57 57 N 13 20 29.97 1015 10 16.0934 0 0
8:35 pm 20:35 Cloudy 38 3.5 24 -4.3 57 57 N 13 20 29.97 1015 10 16.0934 0 0
8:55 pm 20:55 Cloudy 38 3.6 24 -4.7 55 55 N 15 24 29.97 1015 10 16.0934 0 0
9:15 pm 21:15 Cloudy 39 3.7 23 -5 53 53 N 14 22 29.97 1015 10 16.0934 0 0
9:35 pm 21:35 Cloudy 38 3.5 23 -4.9 55 55 N 15 24 29.98 1015 10 16.0934 0 0
9:55 pm 21:55 Cloudy 38 3.2 22 -5.3 54 54 N 12 19 29.99 1015 10 16.0934 0 0
10:15 pm 22:15 Cloudy 37 2.8 23 -5.1 56 56 NNW 15 24 29.99 1016 10 16.0934 0 0
10:35 pm 22:35 Mostly Cloudy 36 2.4 23 -5.2 58 58 N 12 19 29.98 1015 10 16.0934 0 0
10:55 pm 22:55 Partly Cloudy 34 1.1 23 -5.2 63 63 NNW 12 19 30 1016 10 16.0934 0 0
11:15 pm 23:15 Clear 33 0.5 23 -5 67 67 NNW 6 9 30 1016 10 16.0934 0 0
11:35 pm 23:35 Clear 31 -0.5 23 -5.1 71 71 NNW 9 15 30.02 1017 10 16.0934 0 0
11:55 pm 23:55 Clear 30 -1 23 -5 75 75 NW 6 9 30.02 1016 10 16.0934 0 0

Powered by AerisWeather